Time,TemperatureF,DewpointF,PressureIn,WindDirection,WindDirectionDegrees,WindSpeedMPH,WindSpeedGustMPH,Humidity,HourlyPrecipIn,Conditions,Clouds,dailyrainin,SoftwareType,DateUTC
2013-04-10 00:01:00,50.5,14.2,29.88,NW,315,2.0,4.0,23,0.00,,,0.00,meteohub,2013-04-10 07:01:00,
2013-04-10 00:06:00,50.5,14.2,29.88,South,180,2.0,4.0,23,0.00,,,0.00,meteohub,2013-04-10 07:06:00,
2013-04-10 00:11:00,50.9,14.4,29.89,East,90,2.0,4.0,23,0.00,,,0.00,meteohub,2013-04-10 07:11:00,
2013-04-10 00:17:00,50.4,14.0,29.88,South,180,2.0,3.0,23,0.00,,,0.00,meteohub,2013-04-10 07:17:00,
2013-04-10 00:22:00,50.5,14.2,29.88,West,270,2.0,3.0,23,0.00,,,0.00,meteohub,2013-04-10 07:22:00,
2013-04-10 00:27:00,50.5,14.2,29.89,NW,315,2.0,3.0,23,0.00,,,0.00,meteohub,2013-04-10 07:27:00,
2013-04-10 00:32:00,50.5,14.2,29.88,West,270,2.0,3.0,23,0.00,,,0.00,meteohub,2013-04-10 07:32:00,
2013-04-10 00:37:00,50.5,14.2,29.88,West,270,4.0,4.0,23,0.00,,,0.00,meteohub,2013-04-10 07:37:00,
2013-04-10 00:42:00,50.4,14.0,29.89,SW,225,2.0,5.0,23,0.00,,,0.00,meteohub,2013-04-10 07:42:00,
2013-04-10 00:47:00,50.2,13.8,29.89,South,180,2.0,5.0,23,0.00,,,0.00,meteohub,2013-04-10 07:47:00,
2013-04-10 00:52:00,49.8,14.5,29.88,South,180,3.0,5.0,24,0.00,,,0.00,meteohub,2013-04-10 07:52:00,
2013-04-10 00:57:00,49.8,14.5,29.88,South,180,2.0,4.0,24,0.00,,,0.00,meteohub,2013-04-10 07:57:00,
2013-04-10 01:03:00,49.6,14.4,29.89,SE,135,2.0,3.0,24,0.00,,,0.00,meteohub,2013-04-10 08:03:00,
2013-04-10 01:08:00,50.4,14.0,29.89,East,90,4.0,4.0,23,0.00,,,0.00,meteohub,2013-04-10 08:08:00,
2013-04-10 01:13:00,50.5,14.2,29.89,SE,135,3.0,3.0,23,0.00,,,0.00,meteohub,2013-04-10 08:13:00,
2013-04-10 01:18:00,50.5,14.2,29.89,SE,135,4.0,4.0,23,0.00,,,0.00,meteohub,2013-04-10 08:18:00,
2013-04-10 01:23:00,50.4,14.0,29.88,SE,135,5.0,5.0,23,0.00,,,0.00,meteohub,2013-04-10 08:23:00,
2013-04-10 01:29:00,50.7,14.2,29.89,SE,135,4.0,5.0,23,0.00,,,0.00,meteohub,2013-04-10 08:29:00,
2013-04-10 01:34:00,50.9,14.4,29.89,East,90,4.0,5.0,23,0.00,,,0.00,meteohub,2013-04-10 08:34:00,
2013-04-10 01:39:00,50.5,14.2,29.89,West,270,1.0,5.0,23,0.00,,,0.00,meteohub,2013-04-10 08:39:00,
2013-04-10 01:44:00,50.0,13.6,29.89,SE,135,2.0,5.0,23,0.00,,,0.00,meteohub,2013-04-10 08:44:00,
2013-04-10 01:50:00,50.2,14.7,29.89,SE,135,2.0,4.0,24,0.00,,,0.00,meteohub,2013-04-10 08:50:00,
2013-04-10 01:55:00,50.2,14.7,29.90,NW,315,2.0,3.0,24,0.00,,,0.00,meteohub,2013-04-10 08:55:00,
2013-04-10 02:00:00,50.2,14.7,29.90,SE,135,3.0,4.0,24,0.00,,,0.00,meteohub,2013-04-10 09:00:00,
2013-04-10 02:06:00,50.4,14.9,29.90,South,180,2.0,4.0,24,0.00,,,0.00,meteohub,2013-04-10 09:06:00,
2013-04-10 02:11:00,50.4,14.9,29.89,SE,135,4.0,4.0,24,0.00,,,0.00,meteohub,2013-04-10 09:11:00,
2013-04-10 02:16:00,50.5,16.0,29.89,SE,135,4.0,4.0,25,0.00,,,0.00,meteohub,2013-04-10 09:16:00,
2013-04-10 02:22:00,50.7,15.3,29.89,SE,135,2.0,4.0,24,0.00,,,0.00,meteohub,2013-04-10 09:22:00,
2013-04-10 02:27:00,50.5,15.1,29.89,SE,135,4.0,4.0,24,0.00,,,0.00,meteohub,2013-04-10 09:27:00,
2013-04-10 02:32:00,50.7,15.3,29.88,SE,135,4.0,4.0,24,0.00,,,0.00,meteohub,2013-04-10 09:32:00,
2013-04-10 02:37:00,50.7,15.3,29.88,South,180,2.0,5.0,24,0.00,,,0.00,meteohub,2013-04-10 09:37:00,
2013-04-10 02:42:00,50.7,15.3,29.88,SE,135,4.0,5.0,24,0.00,,,0.00,meteohub,2013-04-10 09:42:00,
2013-04-10 02:47:00,50.5,14.2,29.88,SW,225,2.0,5.0,23,0.00,,,0.00,meteohub,2013-04-10 09:47:00,
2013-04-10 02:52:00,50.2,13.8,29.88,South,180,2.0,5.0,23,0.00,,,0.00,meteohub,2013-04-10 09:52:00,
2013-04-10 02:57:00,50.2,13.8,29.88,South,180,3.0,5.0,23,0.00,,,0.00,meteohub,2013-04-10 09:57:00,
2013-04-10 03:03:00,50.2,13.8,29.88,SSE,158,4.0,4.0,23,0.00,,,0.00,meteohub,2013-04-10 10:03:00,
2013-04-10 03:08:00,50.0,13.6,29.89,South,180,2.0,4.0,23,0.00,,,0.00,meteohub,2013-04-10 10:08:00,
2013-04-10 03:13:00,50.2,13.8,29.88,SE,135,2.0,4.0,23,0.00,,,0.00,meteohub,2013-04-10 10:13:00,
2013-04-10 03:19:00,50.4,14.0,29.89,SE,135,2.0,4.0,23,0.00,,,0.00,meteohub,2013-04-10 10:19:00,
2013-04-10 03:24:00,50.5,14.2,29.89,SE,135,2.0,4.0,23,0.00,,,0.00,meteohub,2013-04-10 10:24:00,
2013-04-10 03:29:00,50.5,14.2,29.89,SE,135,4.0,4.0,23,0.00,,,0.00,meteohub,2013-04-10 10:29:00,
2013-04-10 03:35:00,50.5,14.2,29.89,SE,135,3.0,4.0,23,0.00,,,0.00,meteohub,2013-04-10 10:35:00,
2013-04-10 03:40:00,50.9,14.4,29.89,South,180,3.0,4.0,23,0.00,,,0.00,meteohub,2013-04-10 10:40:00,
2013-04-10 03:45:00,50.9,14.4,29.89,South,180,0.0,4.0,23,0.00,,,0.00,meteohub,2013-04-10 10:45:00,
2013-04-10 03:50:00,50.7,14.2,29.89,West,270,0.0,4.0,23,0.00,,,0.00,meteohub,2013-04-10 10:50:00,
2013-04-10 03:55:00,50.4,14.0,29.89,SE,135,2.0,3.0,23,0.00,,,0.00,meteohub,2013-04-10 10:55:00,
2013-04-10 04:01:00,49.8,14.5,29.89,West,270,1.0,2.0,24,0.00,,,0.00,meteohub,2013-04-10 11:01:00,
2013-04-10 04:06:00,49.1,13.8,29.90,South,180,2.0,2.0,24,0.00,,,0.00,meteohub,2013-04-10 11:06:00,
2013-04-10 04:12:00,48.9,13.6,29.89,East,90,0.0,3.0,24,0.00,,,0.00,meteohub,2013-04-10 11:12:00,
2013-04-10 04:17:00,48.7,13.5,29.89,East,90,1.0,3.0,24,0.00,,,0.00,meteohub,2013-04-10 11:17:00,
2013-04-10 04:22:00,48.6,13.5,29.89,SE,135,2.0,3.0,24,0.00,,,0.00,meteohub,2013-04-10 11:22:00,
2013-04-10 04:27:00,48.4,13.3,29.90,West,270,2.0,2.0,24,0.00,,,0.00,meteohub,2013-04-10 11:27:00,
2013-04-10 04:32:00,47.5,13.5,29.90,South,180,0.0,2.0,25,0.00,,,0.00,meteohub,2013-04-10 11:32:00,
2013-04-10 04:37:00,46.9,12.9,29.90,North,0,0.0,2.0,25,0.00,,,0.00,meteohub,2013-04-10 11:37:00,
2013-04-10 04:42:00,46.8,12.7,29.90,South,180,2.0,2.0,25,0.00,,,0.00,meteohub,2013-04-10 11:42:00,
2013-04-10 04:47:00,46.8,12.7,29.90,SE,135,1.0,2.0,25,0.00,,,0.00,meteohub,2013-04-10 11:47:00,
2013-04-10 04:52:00,46.6,12.6,29.90,SE,135,0.0,3.0,25,0.00,,,0.00,meteohub,2013-04-10 11:52:00,
2013-04-10 04:57:00,46.2,9.5,29.90,West,270,2.0,3.0,22,0.00,,,0.00,meteohub,2013-04-10 11:57:00,
2013-04-10 05:03:00,46.2,9.5,29.90,West,270,0.0,3.0,22,0.00,,,0.00,meteohub,2013-04-10 12:03:00,
2013-04-10 05:08:00,46.9,12.9,29.91,South,180,3.0,3.0,25,0.00,,,0.00,meteohub,2013-04-10 12:08:00,
2013-04-10 05:13:00,48.0,13.8,29.91,South,180,4.0,4.0,25,0.00,,,0.00,meteohub,2013-04-10 12:13:00,
2013-04-10 05:18:00,49.1,13.8,29.91,SSE,158,3.0,4.0,24,0.00,,,0.00,meteohub,2013-04-10 12:18:00,
2013-04-10 05:23:00,49.5,14.2,29.91,South,180,2.0,4.0,24,0.00,,,0.00,meteohub,2013-04-10 12:23:00,
2013-04-10 05:29:00,49.6,14.4,29.91,East,90,1.0,4.0,24,0.00,,,0.00,meteohub,2013-04-10 12:29:00,
2013-04-10 05:34:00,49.6,14.4,29.91,SE,135,2.0,3.0,24,0.00,,,0.00,meteohub,2013-04-10 12:34:00,
2013-04-10 05:39:00,49.5,14.2,29.92,SE,135,2.0,3.0,24,0.00,,,0.00,meteohub,2013-04-10 12:39:00,
2013-04-10 05:44:00,50.0,12.6,29.92,SE,135,2.0,2.0,22,0.00,,,0.00,meteohub,2013-04-10 12:44:00,
2013-04-10 05:49:00,50.0,12.6,29.92,West,270,3.0,3.0,22,0.00,,,0.00,meteohub,2013-04-10 12:49:00,
2013-04-10 05:55:00,48.7,12.6,29.92,West,270,0.0,4.0,23,0.00,,,0.00,meteohub,2013-04-10 12:55:00,
2013-04-10 06:00:00,47.8,13.6,29.92,West,270,2.0,4.0,25,0.00,,,0.00,meteohub,2013-04-10 13:00:00,
2013-04-10 06:05:00,47.5,12.6,29.93,West,270,4.0,4.0,24,0.00,,,0.00,meteohub,2013-04-10 13:05:00,
2013-04-10 06:10:00,48.0,12.9,29.93,West,270,1.0,5.0,24,0.00,,,0.00,meteohub,2013-04-10 13:10:00,
2013-04-10 06:15:00,48.2,12.2,29.93,West,270,2.0,5.0,23,0.00,,,0.00,meteohub,2013-04-10 13:15:00,
2013-04-10 06:21:00,48.7,13.5,29.94,West,270,3.0,5.0,24,0.00,,,0.00,meteohub,2013-04-10 13:21:00,
2013-04-10 06:26:00,49.3,14.0,29.94,West,270,3.0,4.0,24,0.00,,,0.00,meteohub,2013-04-10 13:26:00,
2013-04-10 06:31:00,49.8,14.5,29.94,SW,225,2.0,4.0,24,0.00,,,0.00,meteohub,2013-04-10 13:31:00,
2013-04-10 06:37:00,50.0,13.6,29.94,SW,225,1.0,4.0,23,0.00,,,0.00,meteohub,2013-04-10 13:37:00,
2013-04-10 06:42:00,50.2,13.8,29.94,SW,225,1.0,3.0,23,0.00,,,0.00,meteohub,2013-04-10 13:42:00,
2013-04-10 06:47:00,50.0,13.6,29.94,South,180,1.0,2.0,23,0.00,,,0.00,meteohub,2013-04-10 13:47:00,
2013-04-10 06:52:00,50.0,13.6,29.95,South,180,0.0,2.0,23,0.00,,,0.00,meteohub,2013-04-10 13:52:00,
2013-04-10 06:57:00,51.1,14.5,29.95,South,180,0.0,2.0,23,0.00,,,0.00,meteohub,2013-04-10 13:57:00,
2013-04-10 07:02:00,51.3,14.7,29.95,West,270,0.0,2.0,23,0.00,,,0.00,meteohub,2013-04-10 14:02:00,
2013-04-10 07:07:00,52.0,13.3,29.95,SE,135,0.0,0.0,21,0.00,,,0.00,meteohub,2013-04-10 14:07:00,
2013-04-10 07:13:00,53.8,13.6,29.96,SE,135,2.0,0.0,20,0.00,,,0.00,meteohub,2013-04-10 14:13:00,
2013-04-10 07:18:00,55.0,14.7,29.96,SE,135,2.0,2.0,20,0.00,,,0.00,meteohub,2013-04-10 14:18:00,
2013-04-10 07:23:00,55.6,18.3,29.96,SE,135,3.0,3.0,23,0.00,,,0.00,meteohub,2013-04-10 14:23:00,
2013-04-10 07:28:00,55.6,18.3,29.96,South,180,2.0,4.0,23,0.00,,,0.00,meteohub,2013-04-10 14:28:00,
2013-04-10 07:33:00,55.2,16.0,29.96,SW,225,0.0,4.0,21,0.00,,,0.00,meteohub,2013-04-10 14:33:00,
2013-04-10 07:39:00,55.0,14.7,29.97,South,180,4.0,4.0,20,0.00,,,0.00,meteohub,2013-04-10 14:39:00,
2013-04-10 07:44:00,56.3,19.0,29.96,South,180,3.0,3.0,23,0.00,,,0.00,meteohub,2013-04-10 14:44:00,
2013-04-10 07:49:00,57.6,19.0,29.97,SE,135,2.0,4.0,22,0.00,,,0.00,meteohub,2013-04-10 14:49:00,
2013-04-10 07:55:00,59.0,19.0,29.97,East,90,2.0,4.0,21,0.00,,,0.00,meteohub,2013-04-10 14:55:00,
2013-04-10 08:00:00,59.0,20.1,29.97,SE,135,2.0,3.0,22,0.00,,,0.00,meteohub,2013-04-10 15:00:00,
2013-04-10 08:05:00,59.0,21.2,29.97,East,90,2.0,2.0,23,0.00,,,0.00,meteohub,2013-04-10 15:05:00,
2013-04-10 08:10:00,58.8,22.1,29.97,South,180,2.0,4.0,24,0.00,,,0.00,meteohub,2013-04-10 15:10:00,
2013-04-10 08:15:00,58.5,21.7,29.97,East,90,2.0,4.0,24,0.00,,,0.00,meteohub,2013-04-10 15:15:00,
2013-04-10 08:21:00,58.8,22.1,29.97,East,90,2.0,4.0,24,0.00,,,0.00,meteohub,2013-04-10 15:21:00,
2013-04-10 08:27:00,59.0,21.2,29.98,East,90,3.0,4.0,23,0.00,,,0.00,meteohub,2013-04-10 15:27:00,
2013-04-10 08:32:00,59.0,20.1,29.98,East,90,2.0,4.0,22,0.00,,,0.00,meteohub,2013-04-10 15:32:00,
2013-04-10 08:37:00,59.4,21.6,29.98,East,90,2.0,3.0,23,0.00,,,0.00,meteohub,2013-04-10 15:37:00,
2013-04-10 08:42:00,59.9,21.0,29.98,East,90,3.0,3.0,22,0.00,,,0.00,meteohub,2013-04-10 15:42:00,
2013-04-10 08:47:00,60.3,22.3,29.98,East,90,4.0,4.0,23,0.00,,,0.00,meteohub,2013-04-10 15:47:00,
2013-04-10 08:53:00,60.8,21.7,29.98,SE,135,4.0,4.0,22,0.00,,,0.00,meteohub,2013-04-10 15:53:00,
2013-04-10 08:58:00,61.3,22.1,29.98,East,90,4.0,5.0,22,0.00,,,0.00,meteohub,2013-04-10 15:58:00,
2013-04-10 09:03:00,61.7,22.5,29.98,ESE,113,4.0,5.0,22,0.00,,,0.00,meteohub,2013-04-10 16:03:00,
2013-04-10 09:09:00,62.2,23.0,29.98,ESE,113,4.0,5.0,22,0.00,,,0.00,meteohub,2013-04-10 16:09:00,
2013-04-10 09:14:00,62.4,24.1,29.98,SE,135,4.0,6.0,23,0.00,,,0.00,meteohub,2013-04-10 16:14:00,
2013-04-10 09:19:00,63.1,23.7,29.98,East,90,4.0,8.0,22,0.00,,,0.00,meteohub,2013-04-10 16:19:00,
2013-04-10 09:25:00,63.9,24.3,29.98,SE,135,4.0,8.0,22,0.00,,,0.00,meteohub,2013-04-10 16:25:00,
2013-04-10 09:30:00,64.4,27.9,29.98,NE,45,3.0,8.0,25,0.00,,,0.00,meteohub,2013-04-10 16:30:00,
2013-04-10 09:35:00,65.5,28.8,29.98,SE,135,4.0,6.0,25,0.00,,,0.00,meteohub,2013-04-10 16:35:00,
2013-04-10 09:40:00,66.6,28.6,29.98,SE,135,4.0,6.0,24,0.00,,,0.00,meteohub,2013-04-10 16:40:00,
2013-04-10 09:45:00,67.5,29.5,29.98,East,90,3.0,4.0,24,0.00,,,0.00,meteohub,2013-04-10 16:45:00,
2013-04-10 09:50:00,68.2,28.9,29.98,South,180,5.0,5.0,23,0.00,,,0.00,meteohub,2013-04-10 16:50:00,
2013-04-10 09:55:00,69.1,29.7,29.98,South,180,4.0,5.0,23,0.00,,,0.00,meteohub,2013-04-10 16:55:00,
2013-04-10 10:00:00,69.6,31.3,29.98,East,90,5.0,6.0,24,0.00,,,0.00,meteohub,2013-04-10 17:00:00,
2013-04-10 10:06:00,70.2,27.1,29.98,SE,135,8.0,8.0,20,0.00,,,0.00,meteohub,2013-04-10 17:06:00,
2013-04-10 10:11:00,71.1,30.2,29.98,East,90,7.0,8.0,22,0.00,,,0.00,meteohub,2013-04-10 17:11:00,
2013-04-10 10:17:00,71.6,30.7,29.98,SE,135,6.0,8.0,22,0.00,,,0.00,meteohub,2013-04-10 17:17:00,
2013-04-10 10:22:00,72.1,33.4,29.97,SE,135,4.0,8.0,24,0.00,,,0.00,meteohub,2013-04-10 17:22:00,
2013-04-10 10:27:00,73.0,35.1,29.97,East,90,4.0,8.0,25,0.00,,,0.00,meteohub,2013-04-10 17:27:00,
2013-04-10 10:32:00,73.2,36.3,29.97,East,90,4.0,8.0,26,0.00,,,0.00,meteohub,2013-04-10 17:32:00,
2013-04-10 10:38:00,74.1,39.9,29.98,East,90,8.0,8.0,29,0.00,,,0.00,meteohub,2013-04-10 17:38:00,
2013-04-10 10:43:00,74.8,40.5,29.98,East,90,3.0,8.0,29,0.00,,,0.00,meteohub,2013-04-10 17:43:00,
2013-04-10 10:48:00,75.6,40.1,29.97,East,90,4.0,8.0,28,0.00,,,0.00,meteohub,2013-04-10 17:48:00,
2013-04-10 10:53:00,76.5,41.0,29.98,East,90,2.0,8.0,28,0.00,,,0.00,meteohub,2013-04-10 17:53:00,
2013-04-10 10:59:00,77.2,41.5,29.97,NW,315,3.0,5.0,28,0.00,,,0.00,meteohub,2013-04-10 17:59:00,
2013-04-10 11:04:00,76.6,42.1,29.97,West,270,8.0,8.0,29,0.00,,,0.00,meteohub,2013-04-10 18:04:00,
2013-04-10 11:09:00,74.1,39.9,29.97,NW,315,7.0,8.0,29,0.00,,,0.00,meteohub,2013-04-10 18:09:00,
2013-04-10 11:15:00,72.3,39.2,29.97,NW,315,8.0,10.0,30,0.00,,,0.00,meteohub,2013-04-10 18:15:00,
2013-04-10 11:20:00,72.3,39.2,29.97,NW,315,8.0,9.0,30,0.00,,,0.00,meteohub,2013-04-10 18:20:00,
2013-04-10 11:25:00,70.7,39.4,29.97,West,270,9.0,9.0,32,0.00,,,0.00,meteohub,2013-04-10 18:25:00,
2013-04-10 11:30:00,70.9,39.6,29.97,West,270,6.0,10.0,32,0.00,,,0.00,meteohub,2013-04-10 18:30:00,
2013-04-10 11:36:00,70.9,39.6,29.97,West,270,11.0,11.0,32,0.00,,,0.00,meteohub,2013-04-10 18:36:00,
2013-04-10 11:41:00,70.2,38.8,29.97,West,270,9.0,11.0,32,0.00,,,0.00,meteohub,2013-04-10 18:41:00,
2013-04-10 11:46:00,68.9,38.7,29.96,West,270,11.0,12.0,33,0.00,,,0.00,meteohub,2013-04-10 18:46:00,
2013-04-10 11:51:00,68.0,36.3,29.97,West,270,11.0,13.0,31,0.00,,,0.00,meteohub,2013-04-10 18:51:00,
2013-04-10 11:56:00,67.3,36.5,29.97,West,270,11.0,13.0,32,0.00,,,0.00,meteohub,2013-04-10 18:56:00,
2013-04-10 12:02:00,66.9,36.1,29.96,NW,315,10.0,13.0,32,0.00,,,0.00,meteohub,2013-04-10 19:02:00,
2013-04-10 12:07:00,67.1,35.4,29.96,NW,315,10.0,13.0,31,0.00,,,0.00,meteohub,2013-04-10 19:07:00,
2013-04-10 12:12:00,67.1,35.4,29.96,West,270,9.0,12.0,31,0.00,,,0.00,meteohub,2013-04-10 19:12:00,
2013-04-10 12:17:00,66.9,35.2,29.96,NW,315,10.0,12.0,31,0.00,,,0.00,meteohub,2013-04-10 19:17:00,
2013-04-10 12:22:00,66.4,34.9,29.96,NW,315,12.0,14.0,31,0.00,,,0.00,meteohub,2013-04-10 19:22:00,
2013-04-10 12:27:00,66.6,35.1,29.96,NW,315,9.0,14.0,31,0.00,,,0.00,meteohub,2013-04-10 19:27:00,
2013-04-10 12:32:00,66.4,34.9,29.96,West,270,10.0,14.0,31,0.00,,,0.00,meteohub,2013-04-10 19:32:00,
2013-04-10 12:37:00,66.4,34.9,29.96,NW,315,11.0,15.0,31,0.00,,,0.00,meteohub,2013-04-10 19:37:00,
2013-04-10 12:42:00,66.4,34.0,29.96,West,270,10.0,15.0,30,0.00,,,0.00,meteohub,2013-04-10 19:42:00,
2013-04-10 12:47:00,66.6,34.2,29.96,NW,315,9.0,15.0,30,0.00,,,0.00,meteohub,2013-04-10 19:47:00,
2013-04-10 12:53:00,66.9,35.2,29.95,West,270,13.0,17.0,31,0.00,,,0.00,meteohub,2013-04-10 19:53:00,
2013-04-10 12:58:00,66.4,34.0,29.95,West,270,11.0,17.0,30,0.00,,,0.00,meteohub,2013-04-10 19:58:00,
2013-04-10 13:03:00,66.6,34.2,29.95,West,270,12.0,17.0,30,0.00,,,0.00,meteohub,2013-04-10 20:03:00,
2013-04-10 13:09:00,66.9,35.2,29.95,West,270,12.0,15.0,31,0.00,,,0.00,meteohub,2013-04-10 20:09:00,
2013-04-10 13:14:00,66.9,35.2,29.94,West,270,11.0,15.0,31,0.00,,,0.00,meteohub,2013-04-10 20:14:00,
2013-04-10 13:20:00,68.2,36.3,29.94,NW,315,13.0,15.0,31,0.00,,,0.00,meteohub,2013-04-10 20:20:00,
2013-04-10 13:25:00,68.9,37.0,29.94,West,270,9.0,14.0,31,0.00,,,0.00,meteohub,2013-04-10 20:25:00,
2013-04-10 13:30:00,68.9,37.0,29.94,West,270,12.0,15.0,31,0.00,,,0.00,meteohub,2013-04-10 20:30:00,
2013-04-10 13:37:00,69.4,38.3,29.93,West,270,14.0,15.0,32,0.00,,,0.00,meteohub,2013-04-10 20:37:00,
2013-04-10 13:42:00,69.1,37.9,29.93,West,270,13.0,15.0,32,0.00,,,0.00,meteohub,2013-04-10 20:42:00,
2013-04-10 13:47:00,69.3,38.1,29.93,NW,315,11.0,14.0,32,0.00,,,0.00,meteohub,2013-04-10 20:47:00,
2013-04-10 13:52:00,69.1,37.9,29.92,West,270,9.0,14.0,32,0.00,,,0.00,meteohub,2013-04-10 20:52:00,
2013-04-10 13:58:00,69.1,37.9,29.92,SW,225,13.0,14.0,32,0.00,,,0.00,meteohub,2013-04-10 20:58:00,
2013-04-10 14:03:00,68.0,36.3,29.92,WSW,248,14.0,14.0,31,0.00,,,0.00,meteohub,2013-04-10 21:03:00,
2013-04-10 14:08:00,67.3,36.5,29.92,West,270,11.0,16.0,32,0.00,,,0.00,meteohub,2013-04-10 21:08:00,
2013-04-10 14:14:00,66.9,36.1,29.92,West,270,13.0,16.0,32,0.00,,,0.00,meteohub,2013-04-10 21:14:00,
2013-04-10 14:19:00,67.1,37.0,29.92,SW,225,11.0,16.0,33,0.00,,,0.00,meteohub,2013-04-10 21:19:00,
2013-04-10 14:24:00,66.9,36.9,29.92,West,270,17.0,17.0,33,0.00,,,0.00,meteohub,2013-04-10 21:24:00,
2013-04-10 14:30:00,66.7,36.7,29.92,West,270,10.0,17.0,33,0.00,,,0.00,meteohub,2013-04-10 21:30:00,
2013-04-10 14:35:00,67.3,37.2,29.92,West,270,12.0,17.0,33,0.00,,,0.00,meteohub,2013-04-10 21:35:00,
2013-04-10 14:40:00,66.6,35.8,29.92,NW,315,16.0,17.0,32,0.00,,,0.00,meteohub,2013-04-10 21:40:00,
2013-04-10 14:45:00,65.7,34.2,29.91,NW,315,18.0,18.0,31,0.00,,,0.00,meteohub,2013-04-10 21:45:00,
2013-04-10 14:50:00,65.1,33.8,29.92,SW,225,16.0,20.0,31,0.00,,,0.00,meteohub,2013-04-10 21:50:00,
2013-04-10 14:56:00,65.3,33.8,29.91,SW,225,11.0,20.0,31,0.00,,,0.00,meteohub,2013-04-10 21:56:00,
2013-04-10 15:01:00,66.0,34.5,29.91,West,270,15.0,19.0,31,0.00,,,0.00,meteohub,2013-04-10 22:01:00,
2013-04-10 15:07:00,66.0,34.5,29.91,West,270,15.0,17.0,31,0.00,,,0.00,meteohub,2013-04-10 22:07:00,
2013-04-10 15:12:00,63.7,27.1,29.92,NW,315,21.0,21.0,25,0.00,,,0.00,meteohub,2013-04-10 22:12:00,
2013-04-10 15:17:00,63.1,27.7,29.92,SW,225,17.0,21.0,26,0.00,,,0.00,meteohub,2013-04-10 22:17:00,
2013-04-10 15:22:00,62.8,26.4,29.91,West,270,16.0,21.0,25,0.00,,,0.00,meteohub,2013-04-10 22:22:00,
2013-04-10 15:28:00,62.6,27.1,29.91,NW,315,17.0,21.0,26,0.00,,,0.00,meteohub,2013-04-10 22:28:00,
2013-04-10 15:33:00,62.4,28.0,29.91,West,270,18.0,21.0,27,0.00,,,0.00,meteohub,2013-04-10 22:33:00,
2013-04-10 15:38:00,62.8,27.3,29.91,West,270,15.0,20.0,26,0.00,,,0.00,meteohub,2013-04-10 22:38:00,
2013-04-10 15:43:00,62.6,27.1,29.91,West,270,17.0,20.0,26,0.00,,,0.00,meteohub,2013-04-10 22:43:00,
2013-04-10 15:48:00,62.4,28.0,29.90,NW,315,15.0,20.0,27,0.00,,,0.00,meteohub,2013-04-10 22:48:00,
2013-04-10 15:53:00,63.1,27.7,29.90,West,270,11.0,21.0,26,0.00,,,0.00,meteohub,2013-04-10 22:53:00,
2013-04-10 15:59:00,63.5,28.0,29.89,NW,315,17.0,21.0,26,0.00,,,0.00,meteohub,2013-04-10 22:59:00,
2013-04-10 16:04:00,63.5,28.0,29.90,NW,315,17.0,21.0,26,0.00,,,0.00,meteohub,2013-04-10 23:04:00,
2013-04-10 16:09:00,63.5,28.0,29.89,West,270,17.0,17.0,26,0.00,,,0.00,meteohub,2013-04-10 23:09:00,
2013-04-10 16:14:00,63.1,27.7,29.89,NW,315,14.0,18.0,26,0.00,,,0.00,meteohub,2013-04-10 23:14:00,
2013-04-10 16:19:00,63.1,27.7,29.89,West,270,21.0,21.0,26,0.00,,,0.00,meteohub,2013-04-10 23:19:00,
2013-04-10 16:25:00,63.1,27.7,29.89,West,270,18.0,21.0,26,0.00,,,0.00,meteohub,2013-04-10 23:25:00,
2013-04-10 16:30:00,63.3,27.9,29.89,West,270,11.0,21.0,26,0.00,,,0.00,meteohub,2013-04-10 23:30:00,
2013-04-10 16:35:00,63.7,28.2,29.88,West,270,16.0,21.0,26,0.00,,,0.00,meteohub,2013-04-10 23:35:00,
2013-04-10 16:41:00,64.0,29.3,29.88,SW,225,14.0,20.0,27,0.00,,,0.00,meteohub,2013-04-10 23:41:00,
2013-04-10 16:46:00,64.2,29.5,29.88,West,270,14.0,20.0,27,0.00,,,0.00,meteohub,2013-04-10 23:46:00,
2013-04-10 16:52:00,64.9,32.0,29.88,West,270,12.0,17.0,29,0.00,,,0.00,meteohub,2013-04-10 23:52:00,
2013-04-10 16:57:00,65.8,33.6,29.88,West,270,11.0,17.0,30,0.00,,,0.00,meteohub,2013-04-10 23:57:00,
2013-04-10 17:02:00,66.0,33.6,29.89,NW,315,9.0,14.0,30,0.00,,,0.00,meteohub,2013-04-11 00:02:00,
2013-04-10 17:07:00,66.2,33.1,29.88,NW,315,15.0,17.0,29,0.00,,,0.00,meteohub,2013-04-11 00:07:00,
2013-04-10 17:12:00,66.2,33.1,29.88,West,270,18.0,18.0,29,0.00,,,0.00,meteohub,2013-04-11 00:12:00,
2013-04-10 17:17:00,66.0,32.9,29.88,NW,315,16.0,18.0,29,0.00,,,0.00,meteohub,2013-04-11 00:17:00,
2013-04-10 17:23:00,65.7,32.5,29.88,NW,315,13.0,20.0,29,0.00,,,0.00,meteohub,2013-04-11 00:23:00,
2013-04-10 17:28:00,66.0,33.6,29.88,West,270,16.0,20.0,30,0.00,,,0.00,meteohub,2013-04-11 00:28:00,
2013-04-10 17:33:00,65.8,32.7,29.88,West,270,12.0,20.0,29,0.00,,,0.00,meteohub,2013-04-11 00:33:00,
2013-04-10 17:38:00,65.7,32.5,29.88,West,270,18.0,18.0,29,0.00,,,0.00,meteohub,2013-04-11 00:38:00,
2013-04-10 17:43:00,65.5,33.3,29.88,West,270,18.0,18.0,30,0.00,,,0.00,meteohub,2013-04-11 00:43:00,
2013-04-10 17:49:00,64.9,32.0,29.88,NW,315,14.0,18.0,29,0.00,,,0.00,meteohub,2013-04-11 00:49:00,
2013-04-10 17:54:00,64.6,30.7,29.89,West,270,13.0,18.0,28,0.00,,,0.00,meteohub,2013-04-11 00:54:00,
2013-04-10 17:59:00,63.5,28.0,29.88,NW,315,14.0,18.0,26,0.00,,,0.00,meteohub,2013-04-11 00:59:00,
2013-04-10 18:04:00,62.8,27.3,29.88,West,270,15.0,17.0,26,0.00,,,0.00,meteohub,2013-04-11 01:04:00,
2013-04-10 18:10:00,62.4,28.0,29.88,West,270,17.0,18.0,27,0.00,,,0.00,meteohub,2013-04-11 01:10:00,
2013-04-10 18:15:00,61.9,27.5,29.89,West,270,17.0,18.0,27,0.00,,,0.00,meteohub,2013-04-11 01:15:00,
2013-04-10 18:20:00,61.5,27.1,29.90,NW,315,19.0,19.0,27,0.00,,,0.00,meteohub,2013-04-11 01:20:00,
2013-04-10 18:25:00,61.2,27.0,29.89,NW,315,15.0,19.0,27,0.00,,,0.00,meteohub,2013-04-11 01:25:00,
2013-04-10 18:30:00,61.0,26.8,29.89,SW,225,11.0,21.0,27,0.00,,,0.00,meteohub,2013-04-11 01:30:00,
2013-04-10 18:36:00,60.4,27.1,29.89,NW,315,17.0,21.0,28,0.00,,,0.00,meteohub,2013-04-11 01:36:00,
2013-04-10 18:42:00,60.3,27.0,29.89,West,270,11.0,21.0,28,0.00,,,0.00,meteohub,2013-04-11 01:42:00,
2013-04-10 18:47:00,60.3,27.0,29.89,West,270,15.0,17.0,28,0.00,,,0.00,meteohub,2013-04-11 01:47:00,
2013-04-10 18:52:00,60.1,26.1,29.89,West,270,15.0,17.0,27,0.00,,,0.00,meteohub,2013-04-11 01:52:00,
2013-04-10 18:57:00,59.4,25.3,29.89,West,270,11.0,18.0,27,0.00,,,0.00,meteohub,2013-04-11 01:57:00,
2013-04-10 19:02:00,59.0,25.0,29.89,SW,225,10.0,20.0,27,0.00,,,0.00,meteohub,2013-04-11 02:02:00,
2013-04-10 19:07:00,58.5,25.5,29.89,SW,225,13.0,20.0,28,0.00,,,0.00,meteohub,2013-04-11 02:07:00,
2013-04-10 19:12:00,58.5,25.5,29.90,NW,315,11.0,20.0,28,0.00,,,0.00,meteohub,2013-04-11 02:12:00,
2013-04-10 19:18:00,58.5,25.5,29.90,West,270,9.0,17.0,28,0.00,,,0.00,meteohub,2013-04-11 02:18:00,
2013-04-10 19:23:00,58.5,25.5,29.90,West,270,11.0,14.0,28,0.00,,,0.00,meteohub,2013-04-11 02:23:00,
2013-04-10 19:28:00,58.3,25.3,29.89,North,0,11.0,15.0,28,0.00,,,0.00,meteohub,2013-04-11 02:28:00,
2013-04-10 19:33:00,58.5,24.6,29.89,West,270,13.0,15.0,27,0.00,,,0.00,meteohub,2013-04-11 02:33:00,
2013-04-10 19:39:00,59.0,24.1,29.89,West,270,17.0,17.0,26,0.00,,,0.00,meteohub,2013-04-11 02:39:00,
2013-04-10 19:44:00,59.5,24.6,29.89,West,270,12.0,17.0,26,0.00,,,0.00,meteohub,2013-04-11 02:44:00,
2013-04-10 19:49:00,59.7,24.8,29.89,SW,225,17.0,17.0,26,0.00,,,0.00,meteohub,2013-04-11 02:49:00,
2013-04-10 19:54:00,59.7,24.8,29.89,NW,315,11.0,21.0,26,0.00,,,0.00,meteohub,2013-04-11 02:54:00,
2013-04-10 20:00:00,59.5,24.6,29.89,NW,315,15.0,21.0,26,0.00,,,0.00,meteohub,2013-04-11 03:00:00,
2013-04-10 20:05:00,59.4,24.4,29.90,West,270,11.0,17.0,26,0.00,,,0.00,meteohub,2013-04-11 03:05:00,
2013-04-10 20:10:00,59.2,24.3,29.90,NW,315,8.0,15.0,26,0.00,,,0.00,meteohub,2013-04-11 03:10:00,
2013-04-10 20:16:00,58.6,23.9,29.91,West,270,6.0,15.0,26,0.00,,,0.00,meteohub,2013-04-11 03:16:00,
2013-04-10 20:21:00,58.1,23.4,29.91,West,270,5.0,15.0,26,0.00,,,0.00,meteohub,2013-04-11 03:21:00,
2013-04-10 20:26:00,57.7,23.0,29.91,West,270,8.0,15.0,26,0.00,,,0.00,meteohub,2013-04-11 03:26:00,
2013-04-10 20:31:00,57.2,22.6,29.90,West,270,13.0,13.0,26,0.00,,,0.00,meteohub,2013-04-11 03:31:00,
2013-04-10 20:36:00,56.8,24.1,29.91,SW,225,9.0,14.0,28,0.00,,,0.00,meteohub,2013-04-11 03:36:00,
2013-04-10 20:41:00,56.5,23.7,29.91,West,270,12.0,14.0,28,0.00,,,0.00,meteohub,2013-04-11 03:41:00,
2013-04-10 20:46:00,56.3,23.5,29.91,West,270,13.0,16.0,28,0.00,,,0.00,meteohub,2013-04-11 03:46:00,
2013-04-10 20:52:00,55.9,23.4,29.91,West,270,13.0,16.0,28,0.00,,,0.00,meteohub,2013-04-11 03:52:00,
2013-04-10 20:57:00,55.6,23.9,29.91,SW,225,13.0,16.0,29,0.00,,,0.00,meteohub,2013-04-11 03:57:00,
2013-04-10 21:00:00,55.4,23.7,29.91,West,270,11.0,16.0,29,0.00,,,0.00,meteohub,2013-04-11 04:00:00,
2013-04-10 21:01:00,55.4,23.7,29.91,West,270,11.0,16.0,29,0.00,,,0.00,meteohub,2013-04-11 04:01:00,
2013-04-10 21:02:00,55.4,23.7,29.91,West,270,11.0,16.0,29,0.00,,,0.00,meteohub,2013-04-11 04:02:00,
2013-04-10 21:07:00,55.4,23.7,29.91,West,270,11.0,16.0,29,0.00,,,0.00,meteohub,2013-04-11 04:07:00,
2013-04-10 21:12:00,55.0,23.4,29.92,NW,315,12.0,16.0,29,0.00,,,0.00,meteohub,2013-04-11 04:12:00,
2013-04-10 21:17:00,54.9,23.2,29.92,West,270,12.0,16.0,29,0.00,,,0.00,meteohub,2013-04-11 04:17:00,
2013-04-10 21:22:00,54.7,23.0,29.92,NW,315,14.0,16.0,29,0.00,,,0.00,meteohub,2013-04-11 04:22:00,
2013-04-10 21:27:00,54.5,22.8,29.92,NW,315,13.0,16.0,29,0.00,,,0.00,meteohub,2013-04-11 04:27:00,
2013-04-10 21:32:00,54.3,23.5,29.92,SW,225,8.0,16.0,30,0.00,,,0.00,meteohub,2013-04-11 04:32:00,
2013-04-10 21:37:00,54.1,24.1,29.92,West,270,8.0,16.0,31,0.00,,,0.00,meteohub,2013-04-11 04:37:00,
2013-04-10 21:42:00,54.0,24.1,29.92,SW,225,12.0,14.0,31,0.00,,,0.00,meteohub,2013-04-11 04:42:00,
2013-04-10 21:48:00,53.8,23.9,29.92,SW,225,8.0,15.0,31,0.00,,,0.00,meteohub,2013-04-11 04:48:00,
2013-04-10 21:53:00,53.6,24.4,29.91,NW,315,10.0,15.0,32,0.00,,,0.00,meteohub,2013-04-11 04:53:00,
2013-04-10 21:58:00,53.4,25.0,29.92,SW,225,12.0,16.0,33,0.00,,,0.00,meteohub,2013-04-11 04:58:00,
2013-04-10 22:03:00,53.2,25.5,29.93,West,270,12.0,17.0,34,0.00,,,0.00,meteohub,2013-04-11 05:03:00,
2013-04-10 22:08:00,53.2,26.2,29.93,West,270,13.0,18.0,35,0.00,,,0.00,meteohub,2013-04-11 05:08:00,
2013-04-10 22:14:00,53.2,26.2,29.93,West,270,11.0,18.0,35,0.00,,,0.00,meteohub,2013-04-11 05:14:00,
2013-04-10 22:19:00,53.1,26.1,29.93,West,270,17.0,18.0,35,0.00,,,0.00,meteohub,2013-04-11 05:19:00,
2013-04-10 22:24:00,53.1,26.8,29.93,West,270,17.0,17.0,36,0.00,,,0.00,meteohub,2013-04-11 05:24:00,
2013-04-10 22:30:00,53.1,26.8,29.93,West,270,13.0,17.0,36,0.00,,,0.00,meteohub,2013-04-11 05:30:00,
2013-04-10 22:35:00,52.9,27.3,29.93,West,270,13.0,20.0,37,0.00,,,0.00,meteohub,2013-04-11 05:35:00,
2013-04-10 22:40:00,52.7,27.9,29.93,West,270,11.0,20.0,38,0.00,,,0.00,meteohub,2013-04-11 05:40:00,
2013-04-10 22:45:00,52.5,28.2,29.93,West,270,12.0,16.0,39,0.00,,,0.00,meteohub,2013-04-11 05:45:00,
2013-04-10 22:50:00,52.3,29.3,29.93,West,270,14.0,15.0,41,0.00,,,0.00,meteohub,2013-04-11 05:50:00,
2013-04-10 22:55:00,52.2,29.8,29.93,West,270,17.0,19.0,42,0.00,,,0.00,meteohub,2013-04-11 05:55:00,
2013-04-10 23:01:00,52.2,29.8,29.92,SW,225,17.0,19.0,42,0.00,,,0.00,meteohub,2013-04-11 06:01:00,
2013-04-10 23:06:00,52.2,29.8,29.92,SW,225,17.0,19.0,42,0.00,,,0.00,meteohub,2013-04-11 06:06:00,
2013-04-10 23:11:00,51.8,30.6,29.92,West,270,15.0,19.0,44,0.00,,,0.00,meteohub,2013-04-11 06:11:00,
2013-04-10 23:17:00,51.6,31.5,29.92,West,270,12.0,20.0,46,0.00,,,0.00,meteohub,2013-04-11 06:17:00,
2013-04-10 23:22:00,51.6,32.0,29.92,West,270,13.0,20.0,47,0.00,,,0.00,meteohub,2013-04-11 06:22:00,
2013-04-10 23:27:00,51.6,32.0,29.93,West,270,14.0,20.0,47,0.00,,,0.00,meteohub,2013-04-11 06:27:00,
2013-04-10 23:34:00,51.4,32.4,29.92,West,270,15.0,17.0,48,0.00,,,0.00,meteohub,2013-04-11 06:34:00,
2013-04-10 23:40:00,51.3,32.7,29.94,West,270,18.0,19.0,49,0.00,,,0.00,meteohub,2013-04-11 06:40:00,
2013-04-10 23:45:00,51.3,33.3,29.93,NW,315,13.0,19.0,50,0.00,,,0.00,meteohub,2013-04-11 06:45:00,
2013-04-10 23:50:00,51.3,33.8,29.93,West,270,15.0,18.0,51,0.00,,,0.00,meteohub,2013-04-11 06:50:00,
2013-04-10 23:55:00,51.3,34.2,29.94,West,270,11.0,18.0,52,0.00,,,0.00,meteohub,2013-04-11 06:55:00,